Location: Hancock Field Station
(44.9202°N, 120.4259°W)
Time: 00:56:14
(UTC-07:00)

Nadezhda 4 Rocket - Visible Passes

Search period start: 19 April 2015 00:00
Search period end: 29 April 2015 00:00
Orbit: 951 x 991 km, 82.9° (Epoch: 17 April)

Date Brightness Start Highest point End Pass type
(mag) Time Alt. Az. Time Alt. Az. Time Alt. Az.
19 Apr 5.5 20:27:38 10° ESE 20:31:06 16° E 20:34:54 10° NE visible
19 Apr 4.0 22:11:11 20° S 22:15:40 83° W 22:22:02 10° N visible
19 Apr 6.5 23:58:40 10° W 00:02:10 15° WNW 00:05:22 10° NNW visible
20 Apr 4.9 20:49:48 10° SE 20:54:54 28° E 21:00:11 10° NNE visible
20 Apr 4.8 22:34:10 11° SSW 22:39:56 50° WNW 22:46:04 10° N visible
21 Apr 4.3 21:12:53 10° SSE 21:18:48 48° E 21:24:51 10° NNE visible
21 Apr 5.7 22:58:56 10° SW 23:04:24 30° WNW 23:09:49 10° N visible
22 Apr 3.9 21:36:35 10° S 21:42:51 81° E 21:49:13 10° N visible
22 Apr 6.4 23:24:48 10° WSW 23:29:05 18° WNW 23:33:08 10° NNW visible
23 Apr 5.2 20:17:36 10° SE 20:22:12 23° E 20:27:02 10° NNE visible
23 Apr 4.5 22:00:51 10° SSW 22:07:03 61° WNW 22:13:20 10° N visible
23 Apr 6.8 23:52:54 10° WNW 23:53:59 10° NW 23:54:38 10° NW visible
24 Apr 4.5 20:40:23 10° SSE 20:46:04 39° E 20:51:53 10° NNE visible
24 Apr 5.4 22:25:40 10° SW 22:31:26 36° WNW 22:37:12 10° N visible
25 Apr 4.0 21:03:52 10° S 21:10:03 66° E 21:16:21 10° NNE visible
25 Apr 6.2 22:51:10 10° WSW 22:56:01 22° WNW 23:00:44 10° NNW visible
26 Apr 4.2 21:27:55 10° SSW 21:34:11 75° W 21:40:33 10° N visible
26 Apr 6.7 23:17:52 10° W 23:20:50 13° WNW 23:23:28 10° NNW visible
27 Apr 5.1 21:52:30 10° SSW 21:58:30 44° WNW 22:04:32 10° N visible
28 Apr 4.2 20:31:13 10° SSE 20:37:17 54° E 20:43:27 10° NNE visible
28 Apr 6.0 22:17:43 10° SW 22:23:00 27° WNW 22:28:13 10° NNW visible
